Stations météo

Publicité
Writtle, Grande-Bretagne (99127): Température de l'air & dewpoint: 21.10.2020 18:00:00 - 27.10.2020 18:00:00 (GMT)Writtle, Grande-Bretagne (99127): Température de l'air -20cm: 21.10.2020 18:00:00 - 27.10.2020 18:00:00 (GMT)Writtle, Grande-Bretagne (99127): Quantités de précipitations: 21.10.2020 18:00:00 - 27.10.2020 18:00:00 (GMT)
Date & Time tt [°C] td [°C] tt -20cm [°C] rr [mm]
27.10.2020 18:00:00 - - - -
27.10.2020 17:00:00 12,6 11,3 - 0,0
27.10.2020 16:00:00 12,6 12,1 - 0,0
27.10.2020 15:00:00 12,2 11,3 - 0,0
27.10.2020 14:00:00 11,8 10,9 - 0,0
27.10.2020 13:00:00 11,2 10,3 - 0,0
27.10.2020 12:00:00 10,7 9,9 - 0,0
27.10.2020 11:00:00 9,6 8,9 - 0,0
27.10.2020 10:00:00 8,5 7,8 - 0,0
27.10.2020 09:00:00 8,0 7,2 12,0 0,0
27.10.2020 08:00:00 7,4 6,3 - 0,0
27.10.2020 07:00:00 6,9 6,0 - 0,0
27.10.2020 06:00:00 7,4 6,3 - 0,0
27.10.2020 05:00:00 7,5 6,6 - 0,0
27.10.2020 04:00:00 6,5 5,5 - 0,0
27.10.2020 03:00:00 7,0 5,8 - 0,0
27.10.2020 02:00:00 7,2 5,9 - 0,0
27.10.2020 01:00:00 7,5 6,4 - 0,0
27.10.2020 00:00:00 7,3 6,0 - 0,0
26.10.2020 23:00:00 7,6 5,8 - 0,0
26.10.2020 22:00:00 8,5 6,2 - 0,0
26.10.2020 21:00:00 8,5 5,9 - 0,0
26.10.2020 20:00:00 9,0 6,1 - 0,0
26.10.2020 19:00:00 9,4 6,3 - 0,0
26.10.2020 18:00:00 10,1 7,2 - 0,0
26.10.2020 17:00:00 10,2 6,7 - 0,0
26.10.2020 16:00:00 11,5 7,5 - 0,0
26.10.2020 15:00:00 12,3 8,0 - 0,0
26.10.2020 14:00:00 12,8 8,2 - 0,0
26.10.2020 13:00:00 12,9 7,7 - 0,0
26.10.2020 12:00:00 12,6 7,3 - 0,0
26.10.2020 11:00:00 12,5 8,4 - 0,0
26.10.2020 10:00:00 10,9 6,9 - 0,0
26.10.2020 09:00:00 9,9 7,0 12,4 0,0
26.10.2020 08:00:00 7,3 6,2 - 0,0
26.10.2020 07:00:00 6,2 5,4 - 0,0
26.10.2020 06:00:00 6,0 5,3 - 0,0
26.10.2020 05:00:00 6,0 5,4 - 0,0
26.10.2020 04:00:00 6,7 6,2 - 0,0
26.10.2020 03:00:00 6,4 5,7 - 0,0
26.10.2020 02:00:00 7,6 6,5 - 0,0
26.10.2020 01:00:00 7,8 6,5 - 0,0
26.10.2020 00:00:00 7,9 6,6 - 0,0
25.10.2020 23:00:00 7,8 6,4 - 0,0
25.10.2020 22:00:00 7,6 6,3 - 0,0
25.10.2020 21:00:00 7,6 6,4 - 0,0
25.10.2020 20:00:00 8,5 7,1 - 0,0
25.10.2020 19:00:00 8,5 7,1 - 0,0
25.10.2020 18:00:00 9,1 7,2 - 0,0
25.10.2020 17:00:00 9,9 7,0 - 0,0
25.10.2020 16:00:00 10,8 7,8 - 0,0
25.10.2020 15:00:00 11,4 7,7 - 0,0
25.10.2020 14:00:00 11,6 6,6 - 0,0
25.10.2020 13:00:00 11,8 6,8 - 0,0
25.10.2020 12:00:00 10,6 7,2 - 0,0
25.10.2020 11:00:00 11,5 7,6 - 0,0
25.10.2020 10:00:00 10,6 8,4 - 0,0
25.10.2020 09:00:00 9,5 8,0 12,7 0,0
25.10.2020 08:00:00 9,6 8,2 - 0,0
25.10.2020 07:00:00 7,9 7,0 - 0,0
25.10.2020 06:00:00 8,3 7,1 - 0,0
25.10.2020 05:00:00 7,4 6,1 - 0,0
25.10.2020 04:00:00 8,8 7,5 - 0,0
25.10.2020 03:00:00 9,6 8,1 - 0,0
25.10.2020 02:00:00 9,6 8,6 - 0,0
25.10.2020 01:00:00 10,7 8,6 - 0,0
25.10.2020 00:00:00 - - - -
24.10.2020 23:00:00 10,9 9,9 - 0,0
24.10.2020 22:00:00 12,6 10,9 - 0,0
24.10.2020 21:00:00 12,8 11,5 - 0,0
24.10.2020 20:00:00 13,1 12,4 - 0,0
24.10.2020 19:00:00 14,5 13,6 - 0,0
24.10.2020 18:00:00 15,6 13,3 - 0,0
24.10.2020 17:00:00 15,6 12,6 - 0,0
24.10.2020 16:00:00 14,7 13,6 - 0,0
24.10.2020 15:00:00 15,1 13,1 - 0,0
24.10.2020 14:00:00 14,6 12,4 - 0,0
24.10.2020 13:00:00 14,9 11,5 - 0,0
24.10.2020 12:00:00 14,9 11,2 - 0,0
24.10.2020 11:00:00 13,9 11,5 - 0,0
24.10.2020 10:00:00 13,4 10,6 - 0,0
24.10.2020 09:00:00 12,1 9,7 12,7 0,0
24.10.2020 08:00:00 11,1 8,8 - 0,0
24.10.2020 07:00:00 9,7 8,0 - 0,0
24.10.2020 06:00:00 7,7 7,0 - 0,0
24.10.2020 05:00:00 8,3 6,6 - 0,0
24.10.2020 04:00:00 9,1 6,8 - 0,0
24.10.2020 03:00:00 6,7 5,1 - 0,0
24.10.2020 02:00:00 7,0 5,5 - 0,0
24.10.2020 01:00:00 7,0 5,6 - 0,0
24.10.2020 00:00:00 7,2 5,2 - 0,0
23.10.2020 23:00:00 7,1 4,7 - 0,0
23.10.2020 22:00:00 8,8 4,6 - 0,0
23.10.2020 21:00:00 9,9 4,5 - 0,0
23.10.2020 20:00:00 11,8 5,3 - 0,0
23.10.2020 19:00:00 12,3 8,9 - 0,0
23.10.2020 18:00:00 12,8 9,5 - 0,0
23.10.2020 17:00:00 13,2 9,3 - 0,0
23.10.2020 16:00:00 14,4 9,3 - 0,0
23.10.2020 15:00:00 15,3 10,0 - 0,0
23.10.2020 14:00:00 16,0 11,4 - 0,0
23.10.2020 13:00:00 15,6 11,3 - 0,0
23.10.2020 12:00:00 15,2 11,5 - 0,0
23.10.2020 11:00:00 15,1 11,5 - 0,0
23.10.2020 10:00:00 14,4 11,5 - 0,0
23.10.2020 09:00:00 13,3 12,0 12,9 0,0
23.10.2020 08:00:00 12,1 11,6 - 0,0
23.10.2020 07:00:00 11,6 11,3 - 0,0
23.10.2020 06:00:00 11,5 11,4 - 0,0
23.10.2020 05:00:00 10,6 10,6 - 0,0
23.10.2020 04:00:00 9,2 9,2 - 0,0
23.10.2020 03:00:00 8,5 8,3 - 0,0
23.10.2020 02:00:00 8,3 7,9 - 0,0
23.10.2020 01:00:00 9,8 9,6 - 0,0
23.10.2020 00:00:00 9,9 9,6 - 0,0
22.10.2020 23:00:00 10,4 9,8 - 0,0
22.10.2020 22:00:00 10,3 9,2 - 0,0
22.10.2020 21:00:00 11,2 10,4 - 0,0
22.10.2020 20:00:00 11,2 10,8 - 0,0
22.10.2020 19:00:00 10,5 9,8 - 0,0
22.10.2020 18:00:00 10,4 9,3 - 0,0
22.10.2020 17:00:00 11,7 9,6 - 0,0
22.10.2020 16:00:00 13,7 9,4 - 0,0
22.10.2020 15:00:00 14,2 9,8 - 0,0
22.10.2020 14:00:00 15,5 10,1 - 0,0
22.10.2020 13:00:00 15,4 9,7 - 0,0
22.10.2020 12:00:00 16,8 10,2 - 0,0
22.10.2020 11:00:00 15,1 10,7 - 0,0
22.10.2020 10:00:00 14,8 11,4 - 0,0
22.10.2020 09:00:00 14,2 10,8 13,0 0,0
22.10.2020 08:00:00 12,6 10,6 - 0,0
22.10.2020 07:00:00 11,6 9,8 - 0,0
22.10.2020 06:00:00 12,0 10,1 - 0,0
22.10.2020 05:00:00 12,4 10,3 - 0,0
22.10.2020 04:00:00 12,2 10,2 - 0,0
22.10.2020 03:00:00 11,9 10,0 - 0,0
22.10.2020 02:00:00 12,0 10,2 - 0,0
22.10.2020 01:00:00 12,0 10,2 - 0,0
22.10.2020 00:00:00 12,4 10,2 - 0,0
21.10.2020 23:00:00 13,0 9,9 - 0,0
21.10.2020 22:00:00 13,3 12,2 - 0,0
21.10.2020 21:00:00 13,6 12,5 - 0,0
21.10.2020 20:00:00 13,7 12,6 - 0,0
21.10.2020 19:00:00 13,7 12,8 - 0,0
21.10.2020 18:00:00 13,6 13,0 - 0,0

tt = Température de l'air
td = dewpoint
tt -20cm = Température de l'air -20cm
rr = Quantités de précipitations

stations d'obs. à proximité